This demonstration page uses our WeatherBlox Daily Observations layout. Learn more.

Left ArrowRight Arrow

44.31136, -96.79839

Hourly Observations for September 2, 2021

Temp ( °F °C ) Dew Point ( °F °C ) Humidity (%) Winds ( mph kmh ) Pressure ( in mb ) Visibility ( mi km ) Precip ( " mm )
12:56 am 00:56 Clear 65 18.3 58 14.4 78 78 SE 14 22 29.98 1015 10 16 0.00 0.00
1:56 am 01:56 Clear 64 17.8 58 14.4 81 81 SE 13 20 29.99 1016 10 16 0.00 0.00
2:56 am 02:56 Clear 64 17.8 57 13.9 78 78 SE 14 22 29.97 1015 10 16 0.00 0.00
3:56 am 03:56 Mostly Cloudy 64 17.8 57 13.9 78 78 SE 14 22 29.98 1015 10 16 0.00 0.00
4:56 am 04:56 Clear 63 17.2 57 13.9 81 81 ESE 14 22 29.96 1015 10 16 0.00 0.00
5:56 am 05:56 Mostly Cloudy 64 17.8 58 14.4 81 81 E 3 6 29.98 1015 10 16 0.00 0.00
6:47 am 06:47 Cloudy with Nearby Thunderstorms 64 18 59 15 83 83 WNW 6 9 29.96 1015 10 16 0.00 0.00
6:56 am 06:56 Cloudy with Thunderstorms 63 17.2 59 15 87 87 WNW 14 22 30.03 1017 10 16 0.00 0.00
7:32 am 07:32 Cloudy with Nearby Thunderstorms 63 17 61 16 94 94 ESE 6 9 29.98 1015 3 4 0.20 5.08
7:44 am 07:44 Cloudy with Strong Thunderstorms 63 17 61 16 94 94 SE 10 17 29.98 1015 3 4 0.29 7.37
7:49 am 07:49 Cloudy with Strong Thunderstorms 63 17 61 16 94 94 SSE 9 15 29.98 1015 3 5 0.32 8.13
7:56 am 07:56 Cloudy with Strong Thunderstorms 62 16.7 60 15.6 93 93 SE 8 13 30.02 1017 2 3 0.44 11.18
8:03 am 08:03 Cloudy with Strong Thunderstorms 63 17 61 16 94 94 ESE 13 20 29.97 1015 2 2 0.11 2.79
8:09 am 08:09 Cloudy with Thunderstorms 63 17 61 16 94 94 SE 13 20 29.96 1014 2 3 0.13 3.30
8:17 am 08:17 Cloudy with Thunderstorms 63 17 61 16 94 94 SE 14 22 29.97 1015 4 6 0.16 4.06
8:21 am 08:21 Cloudy with Strong Thunderstorms 63 17 61 16 94 94 ESE 17 28 29.95 1014 3 4 0.21 5.33
8:30 am 08:30 Cloudy with Strong Thunderstorms 63 17 61 16 94 94 ESE 13 20 29.94 1014 1 2 0.43 10.92
8:46 am 08:46 Cloudy with Nearby Thunderstorms 63 17 61 16 94 94 ESE 15 24 29.95 1014 1 2 0.74 18.80
8:50 am 08:50 Cloudy with Nearby Thunderstorms 63 17 61 16 94 94 ESE 15 24 29.95 1014 1 2 0.75 19.05
8:56 am 08:56 Cloudy with Nearby Thunderstorms 62 16.7 61 16.1 96 96 SE 15 24 30.01 1016 4 6 0.76 19.30
9:07 am 09:07 Cloudy with Rain 63 17 61 16 94 94 SE 18 30 29.95 1014 4 6 0.03 0.76
9:14 am 09:14 Cloudy with Nearby Thunderstorms 63 17 61 16 94 94 SE 16 26 29.94 1014 3 4 0.11 2.79
9:25 am 09:25 Cloudy with Rain 63 17 61 16 94 94 SE 18 30 29.94 1014 4 6 0.16 4.06
9:45 am 09:45 Cloudy with Rain 63 17 61 16 94 94 ESE 15 24 29.93 1013 3 4 0.29 7.37
9:56 am 09:56 Cloudy with Rain 63 17.2 61 16.1 93 93 SE 15 24 29.98 1015 5 8 0.32 8.13
10:26 am 10:26 Cloudy with Light Rain 63 17 61 16 94 94 ESE 18 30 29.93 1013 9 14 0.02 0.51
10:56 am 10:56 Cloudy with Light Rain 63 17.2 62 16.7 97 97 SE 16 26 29.99 1016 7 11 0.02 0.51
11:08 am 11:08 Cloudy with Light Rain 63 17 61 16 94 94 ESE 17 28 29.93 1013 4 6 0.01 0.25
11:56 am 11:56 Cloudy with Light Rain 63 17.2 62 16.7 97 97 SE 17 28 29.99 1016 5 8 0.04 1.02
12:56 pm 12:56 Cloudy with Light Rain 64 17.8 62 16.7 93 93 ESE 20 31 29.94 1014 10 16 0.00 0.00
1:56 pm 13:56 Cloudy with Light Rain 64 17.8 62 16.7 93 93 SE 16 26 29.96 1014 10 16 0.01 0.25
2:56 pm 14:56 Cloudy 64 17.8 62 16.7 93 93 SE 17 28 29.95 1014 10 16 0.00 0.00
3:56 pm 15:56 Cloudy with Light Rain 64 17.8 62 16.7 93 93 SSE 24 39 29.93 1014 10 16 0.02 0.51
4:56 pm 16:56 Cloudy with Light Rain 63 17.2 61 16.1 93 93 SE 23 37 29.91 1013 8 13 0.02 0.51
5:56 pm 17:56 Cloudy with Light Rain 63 17.2 61 16.1 93 93 SE 21 33 29.90 1013 10 16 0.02 0.51
6:56 pm 18:56 Cloudy with Light Rain 62 16.7 60 15.6 93 93 SE 24 39 29.88 1012 10 16 0.05 1.27
7:56 pm 19:56 Cloudy 62 16.7 60 15.6 93 93 SE 20 31 29.88 1012 10 16 0.00 0.00
8:39 pm 20:39 Cloudy 63 17 61 16 94 94 SE 21 33 29.84 1010 10 16 0.00 0.00
8:56 pm 20:56 Cloudy with Light Rain 62 16.7 60 15.6 93 93 SE 20 31 29.91 1013 7 11 0.00 0.00
9:10 pm 21:10 Cloudy with Light Rain 63 17 61 16 94 94 SE 18 30 29.85 1011 7 11 0.01 0.25
9:56 pm 21:56 Cloudy with Light Rain 62 16.7 61 16.1 96 96 SE 17 28 29.91 1013 8 13 0.01 0.25
10:15 pm 22:15 Cloudy with Light Rain 63 17 61 16 94 94 SE 16 26 29.85 1011 7 11 0.01 0.25
10:51 pm 22:51 Cloudy with Light Rain 63 17 61 16 94 94 SE 18 30 29.85 1011 7 11 0.01 0.25
10:56 pm 22:56 Cloudy with Light Rain 62 16.7 61 16.1 96 96 SE 17 28 29.90 1013 7 11 0.01 0.25
11:56 pm 23:56 Cloudy 61 16.1 60 15.6 97 97 SE 17 28 29.90 1013 10 16 0.00 0.00

Powered by AerisWeather